This is the latest recevied weather packets stored in our database for station/object WB0VGI-1. If no packets are shown the sender has not sent any weather packets the latest 1 day(s).
| Time | Temp. | Humidity | Pressure | Rain* | Wind** | Luminosity | Snow |
|---|---|---|---|---|---|---|---|
| 1778114825 | 6.11° C | 55% | 1019.2 hPa | 0 mm | - | - | - |
| 1778113625 | 6.11° C | 54% | 1019.2 hPa | 0 mm | - | - | - |
| 1778112425 | 6.11° C | 53% | 1019.2 hPa | 0 mm | - | - | - |
| 1778108826 | 6.67° C | 53% | 1019.4 hPa | 0 mm | - | - | - |
| 1778105226 | 6.11° C | 54% | 1019.8 hPa | 0 mm | - | - | - |
| 1778104026 | 6.11° C | 54% | 1020 hPa | 0 mm | - | - | - |
| 1778102826 | 6.11° C | 54% | 1020.1 hPa | 0 mm | - | - | - |
| 1778101626 | 6.11° C | 54% | 1020.1 hPa | 0 mm | - | - | - |
| 1778100426 | 6.11° C | 54% | 1020.2 hPa | 0 mm | - | - | - |
| 1778099226 | 6.11° C | 53% | 1020.2 hPa | 0 mm | - | - | - |
| 1778098026 | 5.56° C | 54% | 1020.3 hPa | 0 mm | - | - | - |
| 1778096826 | 5.56° C | 54% | 1020.3 hPa | 0 mm | - | - | - |
| 1778095626 | 5.56° C | 54% | 1020.5 hPa | 0 mm | - | - | - |
| 1778094426 | 5.56° C | 55% | 1020.5 hPa | 0 mm | - | - | - |
| 1778093226 | 5° C | 56% | 1020.6 hPa | 0 mm | - | - | - |
| 1778092026 | 5.56° C | 56% | 1020.6 hPa | 0 mm | - | - | - |
| 1778090826 | 5° C | 56% | 1020.7 hPa | 0 mm | - | - | - |
| 1778089626 | 4.44° C | 57% | 1020.8 hPa | 0 mm | - | - | - |
| 1778088426 | 5° C | 57% | 1020.8 hPa | 0 mm | - | - | - |
| 1778087226 | 4.44° C | 58% | 1021.1 hPa | 0 mm | - | - | - |
| 1778086026 | 4.44° C | 60% | 1021.1 hPa | 0 mm | - | - | - |
| 1778084826 | 3.89° C | 61% | 1021.2 hPa | 0 mm | - | - | - |
| 1778083626 | 3.89° C | 62% | 1021.2 hPa | 0 mm | - | - | - |
| 1778082426 | 3.89° C | 63% | 1021.1 hPa | 0 mm | - | - | - |
| 1778081226 | 3.33° C | 63% | 1021.1 hPa | 0 mm | - | - | - |
* Rain latest hour (hover to see other rain measurements)
** Current wind speed in m/s (hover to see current wind gust speed)